Weather History for West Palm Beach, FL

Change the Weather History Date:

Thursday, March 6, 2014

  Actual Average Record
Temperature  
Mean Temperature 74 °F 70 °F  
Max Temperature 82 °F 78 °F 91 °F (2003)
Min Temperature 66 °F 61 °F 39 °F (1920)
Degree Days  
Heating Degree Days 0 1  
Month to date heating degree days 0 6  
Since 1 July heating degree days 115 211  
Cooling Degree Days 9 6  
Month to date cooling degree days 37 34  
Year to date cooling degree days 383 269  
Growing Degree Days 24 (Base 50)    
Moisture  
Dew Point 67 °F    
Average Humidity 81    
Maximum Humidity 97    
Minimum Humidity 65    
Precipitation  
Precipitation 0.20 in 0.13 in 2.91 in (2008)
Month to date precipitation 0.26 0.76  
Year to date precipitation 11.74 6.71  
Snow  
Snow 0.00 in - - ()
Month to date snowfall 0.0  
Since 1 July snowfall 0.0  
Snow Depth 0.00 in    
Sea Level Pressure  
Sea Level Pressure 29.87 in    
Wind  
Wind Speed 9 mph (SSW)    
Max Wind Speed 35 mph    
Max Gust Speed 46 mph    
Visibility 9 miles    
Events Rain , Thunderstorm    
T = Trace of Precipitation, MM = Missing Value Source: NWS Daily Summary

Daily Weather History Graph

Daily Weather History Graph

Search for Another Location

Airport:

Trip Planner

Search our weather history database for the weather conditions in past years. The results will help you decide how hot, cold, wet, or windy it might be!

Date:

Astronomy

Mar. 06, 2014 Rise Set
Actual Time 6:39 AM EST 6:24 PM EST
Civil Twilight 6:16 AM EST 6:47 PM EST
Nautical Twilight 5:49 AM EST 7:14 PM EST
Astronomical Twilight 5:22 AM EST 7:41 PM EST
Moon 10:17 AM EST (3/6) 11:55 PM EST (3/6)
Length of Visible Light 12h 31m
Length of Day
11h 45m
Waxing Crescent, 32% of the Moon is Illuminated
Mar 6
Waxing Crescent
Mar 8
First Quarter
Mar 16
Full
Mar 23
Last Quarter
Mar 30
New

Hourly Weather History & Observations

Time (EST) Temp. Heat Index Dew Point Humidity Pressure Visibility Wind Dir Wind Speed Gust Speed Precip Events Conditions
12:53 AM 69.1 °F - 66.9 °F 93% 29.99 in 10.0 mi Calm Calm - N/A   Mostly Cloudy
1:53 AM 69.1 °F - 66.9 °F 93% 29.98 in 10.0 mi North 3.5 mph - N/A   Mostly Cloudy
2:53 AM 70.0 °F - 68.0 °F 93% 29.95 in 10.0 mi Calm Calm - N/A   Mostly Cloudy
3:53 AM 69.1 °F - 66.9 °F 93% 29.92 in 10.0 mi Calm Calm - N/A   Mostly Cloudy
4:53 AM 68.0 °F - 66.9 °F 96% 29.90 in 6.0 mi Calm Calm - N/A   Mostly Cloudy
5:53 AM 68.0 °F - 66.9 °F 96% 29.90 in 9.0 mi Calm Calm - N/A   Mostly Cloudy
6:53 AM 68.0 °F - 66.9 °F 96% 29.92 in 10.0 mi Calm Calm - N/A   Mostly Cloudy
7:53 AM 73.0 °F - 70.0 °F 90% 29.91 in 10.0 mi SE 5.8 mph - N/A   Mostly Cloudy
8:53 AM 78.1 °F - 72.0 °F 81% 29.90 in 10.0 mi South 5.8 mph - N/A   Mostly Cloudy
9:53 AM 78.1 °F - 68.0 °F 71% 29.91 in 10.0 mi SSW 6.9 mph - N/A   Mostly Cloudy
10:53 AM 81.0 °F 84.1 °F 69.1 °F 67% 29.90 in 10.0 mi SE 11.5 mph - N/A   Mostly Cloudy
11:53 AM 81.0 °F 84.4 °F 70.0 °F 69% 29.88 in 10.0 mi SE 15.0 mph - N/A   Mostly Cloudy
12:53 PM 82.0 °F 85.5 °F 69.1 °F 65% 29.86 in 10.0 mi South 12.7 mph - N/A   Mostly Cloudy
1:48 PM 80.6 °F 84.6 °F 71.6 °F 74% 29.82 in 10.0 mi SSE 19.6 mph - N/A Thunderstorm Thunderstorm
1:53 PM 80.1 °F 83.6 °F 71.1 °F 74% 29.82 in 10.0 mi SSE 16.1 mph - N/A Thunderstorm Thunderstorm
2:53 PM 75.9 °F - 72.0 °F 87% 29.81 in 10.0 mi South 5.8 mph - 0.01 in Thunderstorm Thunderstorm
3:16 PM 72.0 °F - 66.0 °F 81% 29.85 in 6.0 mi West 24.2 mph 46.0 mph N/A   Haze
3:18 PM 69.1 °F - 64.0 °F 84% 29.84 in 1.0 mi WSW 20.7 mph 46.0 mph 0.04 in Rain , Thunderstorm Heavy Thunderstorms and Rain
3:27 PM 66.9 °F - 64.0 °F 90% 29.84 in 3.0 mi WSW 18.4 mph 28.8 mph 0.09 in Rain , Thunderstorm Heavy Thunderstorms and Rain
3:38 PM 66.9 °F - 64.0 °F 90% 29.84 in 10.0 mi WSW 16.1 mph 28.8 mph 0.10 in Rain , Thunderstorm Light Thunderstorms and Rain
3:53 PM 66.9 °F - 64.0 °F 90% 29.83 in 8.0 mi WSW 17.3 mph - 0.14 in Rain , Thunderstorm Light Thunderstorms and Rain
4:01 PM 66.9 °F - 64.0 °F 90% 29.82 in 10.0 mi WSW 17.3 mph - 0.01 in Rain Light Rain
4:53 PM 68.0 °F - 64.0 °F 87% 29.78 in 10.0 mi SW 10.4 mph - 0.04 in Rain Light Rain
5:53 PM 68.0 °F - 64.9 °F 90% 29.78 in 10.0 mi SSW 18.4 mph 24.2 mph 0.01 in Rain Light Rain
6:53 PM 69.1 °F - 64.9 °F 87% 29.79 in 10.0 mi SSW 18.4 mph - 0.00 in   Overcast
7:53 PM 69.1 °F - 64.9 °F 87% 29.81 in 10.0 mi SW 15.0 mph - N/A   Overcast
8:53 PM 69.1 °F - 64.0 °F 84% 29.83 in 10.0 mi WSW 11.5 mph - N/A   Mostly Cloudy
9:53 PM 68.0 °F - 64.9 °F 90% 29.84 in 10.0 mi West 10.4 mph - N/A   Scattered Clouds
10:53 PM 68.0 °F - 64.9 °F 90% 29.85 in 10.0 mi WSW 8.1 mph - N/A   Overcast
11:04 PM 68.0 °F - 66.0 °F 93% 29.85 in 10.0 mi WSW 9.2 mph - N/A   Overcast
11:53 PM 69.1 °F - 64.9 °F 87% 29.83 in 10.0 mi WSW 11.5 mph - N/A   Overcast